This is the latest recevied weather packets stored in our database for station/object SV2JU-2. If no packets are shown the sender has not sent any weather packets the latest 10 day(s).
| Time | Temp. | Humidity | Pressure | Rain* | Wind** | Luminosity | Snow |
|---|---|---|---|---|---|---|---|
| 1787917404 | 31.11° C | 29% | 1016 hPa | 0 mm | - | - | - |
| 1787916653 | 31.11° C | 28% | 1016 hPa | 0 mm | - | - | - |
| 1787915153 | 31.11° C | 28% | 1016 hPa | 0 mm | - | - | - |
| 1787914404 | 30.56° C | 28% | 1016 hPa | 0 mm | - | - | - |
| 1787913653 | 30.56° C | 29% | 1016 hPa | 0 mm | - | - | - |
| 1787912904 | 30.56° C | 28% | 1016 hPa | 0 mm | - | - | - |
| 1787910653 | 30° C | 28% | 1016 hPa | 0 mm | - | - | - |
| 1787909153 | 30° C | 26% | 1016 hPa | 0 mm | - | - | - |
| 1787908403 | 29.44° C | 27% | 1016 hPa | 0 mm | - | - | - |
| 1787907652 | 29.44° C | 27% | 1016 hPa | 0 mm | - | - | - |
| 1787906152 | 29.44° C | 27% | 1017 hPa | 0 mm | - | - | - |
| 1787905403 | 29.44° C | 28% | 1017 hPa | 0 mm | - | - | - |
| 1787904652 | 29.44° C | 29% | 1017 hPa | 0 mm | - | - | - |
| 1787903152 | 30° C | 30% | 1016 hPa | 0 mm | - | - | - |
| 1787901652 | 30° C | 28% | 1016 hPa | 0 mm | - | - | - |
| 1787900903 | 30° C | 28% | 1016 hPa | 0 mm | - | - | - |
| 1787900151 | 30.56° C | 29% | 1016 hPa | 0 mm | - | - | - |
| 1787898651 | 29.44° C | 33% | 1016 hPa | 0 mm | - | - | - |
| 1787897151 | 27.78° C | 35% | 1016 hPa | 0 mm | - | - | - |
| 1787896402 | 27.22° C | 36% | 1016 hPa | 0 mm | - | - | - |
| 1787895651 | 26.67° C | 39% | 1016 hPa | 0 mm | - | - | - |
| 1787894902 | 26.11° C | 39% | 1016 hPa | 0 mm | - | - | - |
| 1787894152 | 26.11° C | 39% | 1016 hPa | 0 mm | - | - | - |
| 1787893402 | 25.56° C | 39% | 1015 hPa | 0 mm | - | - | - |
| 1787892651 | 25° C | 39% | 1015 hPa | 0 mm | - | - | - |
* Rain latest hour (hover to see other rain measurements)
** Current wind speed in m/s (hover to see current wind gust speed)